Dewpoint
49 50 50 50 50 51 51 51 50 50 49 49 49 48 46 45 45 44 42 41 40 39 37 36 36 35 35 35 34 34 33 32 32 32 32 31 31 30 30 30 29 28 28 28 28 29 29 27 27 27 28 28 27 27 27 28 28 28 28 29 30 28 29 30 27 25 24 24 24 23 23 24 23 24 25 25 25 26 27 26 26 25 24 24 24
49 49 50 50 50 50 49 49 49 48 48 47 46 45 43 43 41 40 41 38 38 37 36 35 35 34 34 33 33 33 32 30 31 31 31 31 30 30 28 29 28 28 27 27 28 28 27 26 25 26 27 26 26 26 26 27 27 27 27 27 26 26 27 28 26 25 23 23 22 23 23 24 24 25 25 25 25 25 25 24 25 24 23 23 23
48 49 49 49 48 48 47 46 46 46 45 44 43 42 41 40 40 40 38 36 35 36 35 34 34 34 33 33 32 31 31 31 31 31 31 30 30 29 28 28 27 27 27 26 26 26 26 26 25 26 26 26 26 26 27 27 27 26 26 26 25 25 26 26 26 25 23 23 24 23 23 24 24 24 25 25 25 25 24 23 23 23 24 24 24
47 47 47 46 45 44 44 43 44 44 43 42 41 40 39 38 38 38 36 35 35 33 34 33 33 33 32 31 31 30 30 30 31 30 30 29 29 29 28 27 27 27 27 27 26 26 26 25 26 26 26 25 25 25 26 27 26 26 25 26 25 26 25 25 26 26 25 24 23 23 24 24 24 24 25 25 24 23 23 23 22 23 23 24 23
45 44 44 43 42 43 42 42 42 42 41 40 39 38 37 37 37 36 35 34 33 33 32 32 32 31 30 29 29 29 29 29 29 29 29 29 28 28 28 28 27 27 27 27 27 26 26 25 26 26 25 24 23 23 24 25 25 26 25 25 25 25 25 25 25 25 25 24 24 24 24 24 24 24 24 23 23 23 22 22 22 22 23 23 24
43 43 42 42 42 41 41 41 40 40 39 38 37 37 37 36 35 34 34 33 32 31 31 30 29 28 28 27 27 28 28 28 28 28 28 28 28 28 28 28 28 27 27 27 26 26 25 25 25 25 24 24 23 24 24 24 25 25 25 24 24 25 24 24 25 25 25 25 24 23 23 23 23 23 23 23 23 22 22 22 23 23 23 23 24
42 42 42 42 41 40 39 39 39 38 38 37 36 36 35 35 34 33 32 31 30 28 28 27 27 27 26 26 27 27 28 28 28 28 28 28 28 27 28 27 27 26 26 26 26 26 25 25 24 25 24 24 24 24 24 25 25 24 24 24 24 24 24 24 25 25 25 24 24 24 23 24 23 22 23 23 23 22 22 22 22 23 23 23 24
41 41 41 40 40 39 38 37 37 37 36 36 35 34 33 32 31 30 29 28 27 26 26 26 25 25 25 26 27 28 28 28 28 28 28 28 27 27 26 26 25 25 25 25 25 24 24 24 24 24 24 25 25 25 25 24 24 23 23 24 24 25 24 24 24 24 24 23 23 22 23 22 22 23 23 23 22 22 23 23 22 23 24 25 25
40 40 39 39 38 37 36 36 35 35 34 33 32 31 30 29 28 27 26 26 26 25 25 24 23 24 25 26 27 28 28 28 28 28 27 27 27 26 25 25 24 23 23 23 23 23 23 23 23 24 26 27 25 25 25 25 24 23 23 24 24 24 24 25 25 25 24 23 23 23 22 22 22 22 22 22 22 22 23 24 24 24 25 24 24
39 38 38 37 36 36 35 34 34 33 32 31 30 29 28 27 26 25 25 25 24 24 23 22 22 23 24 25 27 29 30 30 30 31 30 27 26 25 25 24 23 23 22 22 22 22 22 22 23 26 26 26 24 24 24 24 25 25 24 24 25 25 25 25 25 25 24 24 23 23 22 21 21 22 22 22 23 24 24 24 24 24 24 23 24
38 38 38 36 35 34 34 33 32 31 30 29 28 27 26 26 25 24 24 24 23 22 22 22 22 22 24 26 27 29 30 32 33 31 30 28 25 24 23 23 23 22 21 21 21 21 21 22 22 23 24 24 23 23 23 24 25 26 26 27 26 25 25 24 24 24 24 24 24 23 22 21 21 22 22 23 24 24 24 25 24 24 23 22 20
38 38 36 34 34 33 33 31 30 29 28 27 26 26 25 25 24 23 23 23 23 22 21 21 21 22 24 26 27 29 30 33 32 30 28 28 26 24 23 23 23 22 22 21 21 21 21 21 21 22 21 22 22 21 21 23 25 26 27 27 27 27 27 25 24 24 24 23 23 23 23 21 21 22 22 23 24 24 24 24 24 24 23 21 21
37 36 34 33 33 32 31 30 29 27 26 26 25 26 25 24 24 24 23 22 22 22 21 21 21 21 23 25 27 28 30 33 32 30 28 28 27 24 23 22 22 22 21 21 21 21 20 20 20 20 20 22 22 20 20 21 25 26 27 27 26 26 26 27 26 25 24 24 23 22 22 22 21 21 23 24 25 23 24 24 24 24 23 22 22
36 34 32 32 32 31 30 29 27 26 25 25 25 25 24 24 23 23 23 22 22 22 22 21 21 21 23 25 27 28 29 32 31 29 28 28 27 24 22 22 21 21 21 21 20 20 20 20 20 19 20 20 20 20 21 23 25 26 26 25 24 24 24 25 25 24 24 23 22 22 21 22 22 23 24 25 24 24 24 22 23 22 22 22 23
34 32 32 31 30 29 28 27 26 25 24 24 24 23 23 23 23 23 22 22 22 22 21 21 21 21 23 25 26 27 28 31 30 29 28 27 26 24 22 22 21 21 21 20 20 20 20 20 20 20 20 20 20 23 24 25 26 26 25 24 23 23 23 22 22 22 21 22 21 22 22 23 23 23 23 24 24 24 23 22 23 23 24 25 24
32 31 31 29 29 28 27 25 24 24 24 24 23 23 23 23 22 22 22 21 22 22 21 21 21 21 22 24 25 26 28 30 30 29 28 27 26 23 22 21 21 21 20 20 20 20 20 20 20 20 20 19 21 26 26 26 25 24 23 23 23 22 21 21 22 23 22 22 23 23 23 23 25 23 24 23 22 22 23 23 23 23 22 20 20
31 30 30 28 28 27 26 25 24 24 24 23 23 22 22 22 21 22 21 22 21 21 21 21 21 21 21 22 24 25 26 29 29 29 27 26 24 23 22 22 22 21 20 20 20 19 19 19 20 20 19 19 23 27 27 26 24 23 22 22 20 18 18 18 22 24 25 26 26 26 26 26 25 25 25 25 22 23 21 20 19 21 19 18 18
30 30 30 28 27 26 25 24 24 24 24 23 22 22 22 22 21 22 21 21 21 21 21 21 21 21 20 20 22 23 24 27 28 28 26 25 23 22 23 22 23 22 21 20 20 19 19 20 21 20 19 20 25 26 26 25 23 23 22 19 16 16 18 21 23 23 23 22 22 21 21 22 22 23 23 23 23 22 19 18 20 20 19 18 17
30 29 29 27 26 25 24 24 24 24 23 23 22 21 21 21 21 21 21 21 20 21 21 20 20 20 20 20 22 22 23 26 27 28 27 25 23 23 22 22 22 22 21 20 20 20 19 19 20 21 22 24 26 26 26 25 23 22 20 17 16 17 20 22 19 17 15 14 14 15 15 17 17 17 18 21 21 20 18 20 20 19 18 18 19
30 28 26 25 24 24 24 24 23 23 23 22 21 21 21 20 20 20 20 20 20 20 19 19 19 19 19 19 19 19 21 22 26 27 27 26 24 23 23 22 22 21 21 21 20 20 19 19 20 22 24 25 26 26 25 25 22 21 19 17 18 20 21 19 16 15 13 13 13 14 14 15 16 17 17 17 18 19 19 19 19 20 20 19 20
27 26 24 24 23 23 23 23 23 22 22 21 21 20 20 20 20 19 19 19 19 19 18 18 18 18 18 18 18 18 20 22 25 26 26 26 25 24 23 23 23 21 21 21 20 19 19 19 19 21 24 25 25 24 24 24 23 20 19 20 21 21 21 15 13 14 12 12 12 13 13 14 15 15 16 16 17 18 18 20 20 21 20 20 20
25 24 23 24 23 23 23 23 22 22 21 21 20 20 19 20 20 19 19 18 17 17 17 17 17 17 17 17 18 19 20 21 22 24 25 26 26 25 23 24 23 21 21 20 20 19 19 19 20 22 24 24 22 23 23 22 21 20 20 22 22 21 16 13 11 11 10 11 11 12 12 12 13 14 15 15 16 18 18 19 20 21 22 22 22
24 23 23 23 22 22 21 21 21 20 20 20 19 19 18 18 17 17 17 16 16 16 16 16 16 16 16 17 17 17 18 20 21 22 25 25 25 25 24 24 24 23 21 19 19 19 20 21 22 23 22 21 21 22 21 20 19 18 20 20 19 18 14 10 10 9 9 10 11 11 11 11 12 13 14 14 16 17 18 19 20 21 22 23 24
23 23 22 22 21 20 20 19 19 19 19 19 18 17 17 16 16 16 16 16 16 15 16 16 16 15 16 16 17 16 17 18 20 21 23 24 24 24 24 24 23 23 22 20 20 19 20 21 22 21 20 19 20 19 19 17 17 18 18 18 16 12 9 8 8 8 9 10 9 9 9 10 12 12 13 15 16 17 18 19 20 21 22 22 21
23 22 21 20 20 18 18 18 18 18 18 18 17 16 15 16 15 15 15 15 15 15 15 16 15 16 16 16 16 16 17 17 18 20 22 23 23 23 23 23 23 22 21 20 20 20 22 21 18 18 17 17 17 16 15 13 15 16 15 14 10 5 6 6 6 8 8 7 8 8 8 10 11 12 14 16 16 16 17 18 20 21 21 20 19
21 20 19 19 18 18 17 17 17 17 17 17 16 16 16 15 15 15 15 15 15 15 15 15 15 16 17 16 16 16 16 16 17 18 20 21 21 22 22 21 21 21 21 19 20 20 18 16 16 15 14 14 12 9 10 9 12 12 12 9 4 4 4 4 5 6 5 6 7 7 8 9 10 12 14 14 15 14 16 17 18 18 18 16 15
20 19 18 18 16 17 17 17 16 15 14 14 14 15 15 15 15 15 15 14 15 15 15 14 14 17 17 16 16 15 15 15 16 17 18 20 20 20 20 20 21 20 18 18 17 13 12 12 12 13 12 12 11 10 9 8 6 5 3 3 2 2 4 3 5 5 6 6 6 7 8 9 11 11 11 12 14 15 16 18 17 16 16 15 14
20 18 17 17 16 16 16 16 16 15 15 15 14 14 15 15 14 14 14 14 14 14 14 14 14 14 16 15 15 14 13 13 15 17 19 20 20 21 19 19 19 16 16 16 11 10 5 12 9 5 5 3 3 2 1 1 2 2 0 -0 -0 3 7 7 7 5 5 7 7 8 8 9 8 9 11 12 13 14 16 17 16 15 14 13 11
18 16 16 15 15 15 15 16 15 15 14 14 14 14 15 15 15 15 15 16 15 14 14 14 14 15 15 15 14 13 13 13 15 20 20 22 20 20 19 19 18 16 18 17 8 4 1 -1 1 1 0 1 0 -1 -2 -3 -1 -1 -2 -1 -1 -1 -1 -1 0 2 5 6 6 6 7 8 8 9 11 12 13 14 16 16 15 13 12 11 9
15 15 15 15 15 15 14 15 14 14 14 13 13 10 18 18 17 15 15 18 19 18 18 15 15 16 15 14 14 13 13 14 20 23 23 23 23 22 21 20 20 18 18 16 8 -4 -3 -5 -3 -3 -1 -3 -3 -2 -3 -3 -3 -2 -2 4 1 -1 1 -0 -0 2 5 5 6 6 6 7 7 9 10 11 13 14 16 15 13 12 10 8 7
16 15 14 14 14 14 14 14 14 13 13 13 13 13 14 15 18 18 18 20 20 20 20 20 20 18 15 13 16 18 19 22 24 23 23 23 22 22 21 20 20 19 18 8 -3 -5 -4 -3 -3 -3 -2 -4 -3 -3 -3 -4 -4 -4 -3 -2 -3 -1 1 -0 0 3 4 4 5 6 6 6 7 9 10 11 12 13 14 13 12 10 8 7 6
16 15 15 14 14 14 13 13 13 13 13 13 13 13 13 14 17 19 21 21 21 21 21 22 21 20 19 17 18 19 22 24 24 23 23 22 22 21 20 20 19 18 16 15 -2 -4 -5 -5 -5 -5 -4 -4 -4 -3 -5 -6 -5 -6 -4 -2 -2 -1 -1 -1 2 2 3 4 5 5 5 6 7 9 10 11 12 13 12 11 10 9 8 6 6
17 15 14 14 14 13 13 13 13 13 12 12 12 13 13 13 13 16 19 22 22 22 22 22 21 21 21 21 22 21 23 23 23 23 22 21 21 20 20 20 18 16 14 1 -3 -3 -4 -5 -7 -6 -5 -5 -7 -8 -7 -6 -6 -5 -5 -3 -3 -2 -1 -0 2 1 3 4 5 4 5 6 7 8 9 10 12 12 11 10 9 8 7 7 6
16 15 14 14 13 13 13 13 12 12 12 12 12 13 13 13 13 15 17 19 20 21 22 22 22 22 22 22 22 22 23 23 23 22 21 21 20 20 20 17 17 15 9 -3 -4 -5 -6 -7 -6 -6 -8 -7 -7 -6 -6 -6 -6 -6 -5 -4 -4 -2 -1 0 -1 0 2 3 4 4 5 5 6 6 7 9 12 12 10 9 8 7 6 6 5
12 13 12 12 13 13 13 12 12 12 12 12 12 12 13 13 14 15 16 17 17 16 17 19 22 23 20 20 21 22 23 23 22 22 21 20 19 20 19 11 7 0 -2 -5 -5 -8 -7 -6 -8 -7 -8 -9 -8 -6 -7 -8 -8 -7 -6 -5 -4 -4 -3 -2 -0 1 3 3 3 4 5 5 4 6 7 8 11 11 9 8 7 6 6 4 4
13 13 12 12 13 12 12 12 12 12 11 11 12 13 13 13 13 14 15 16 15 14 14 16 17 21 22 21 21 22 22 22 22 21 20 20 19 19 5 2 -1 -3 -5 -7 -7 -6 -5 -7 -7 -9 -10 -10 -9 -9 -10 -9 -8 -7 -8 -7 -4 -4 -3 -1 2 2 3 3 3 4 4 3 4 5 6 8 11 10 9 8 6 5 4 1 1
12 12 12 12 12 12 12 11 11 11 12 10 10 11 12 12 12 13 14 14 13 13 13 12 10 11 18 15 18 21 22 22 21 20 19 19 19 11 -0 0 -1 -3 -3 -6 -5 -4 -5 -7 -8 -10 -10 -10 -10 -11 -10 -9 -9 -8 -4 -5 -5 -3 -0 2 2 3 2 2 2 3 3 3 3 4 6 8 10 10 9 8 5 3 2 2 2
11 12 11 9 8 10 9 10 10 11 10 9 8 10 10 10 10 11 12 12 11 10 10 10 12 12 12 11 15 16 18 20 19 18 18 17 8 1 -2 -3 -4 -2 -2 -3 -2 -3 -5 -9 -12 -12 -11 -12 -11 -12 -11 -11 -10 -10 -9 -7 -5 -2 2 2 2 1 2 2 2 2 3 3 3 4 6 7 9 9 8 6 2 -1 -3 -1 -3
8 10 11 11 12 10 10 9 9 9 9 9 8 8 8 9 9 9 10 10 10 9 8 9 10 10 10 9 10 12 15 13 11 9 8 5 -1 -2 -2 -2 -2 -3 -3 -4 -3 -3 -6 -8 -9 -10 -10 -11 -10 -11 -11 -11 -11 -11 -10 -8 -6 -4 -2 -2 -0 0 1 1 1 1 1 2 3 4 6 7 9 9 7 4 -1 -3 -4 -4 -5
8 8 8 11 9 10 8 8 8 8 8 8 7 7 7 7 8 8 9 9 9 8 7 7 8 8 8 7 8 9 9 9 7 6 3 1 -1 -2 -3 -3 -3 -2 -3 -4 -4 -4 -5 -8 -10 -10 -9 -11 -11 -12 -12 -10 -11 -10 -10 -9 -7 -5 -3 -1 -1 0 0 0 0 0 0 1 2 4 5 7 9 9 7 5 2 -1 -4 -4 -4
7 5 7 10 10 7 8 7 7 7 8 7 7 7 7 7 7 7 7 7 7 7 6 6 6 7 6 5 10 10 8 7 5 4 2 1 -1 -2 -3 -3 -3 -3 -3 -4 -4 -5 -6 -7 -9 -10 -10 -11 -11 -11 -11 -11 -11 -11 -11 -8 -7 -4 -4 -3 -2 -1 0 0 0 0 -0 1 2 3 4 5 9 8 6 5 3 -1 -3 -4 -5
5 5 6 7 8 8 7 7 7 7 7 7 7 7 6 7 7 7 6 6 6 6 5 5 5 4 5 7 9 10 7 4 3 1 0 -1 -1 -1 -2 -3 -3 -3 -3 -3 -4 -5 -5 -7 -9 -9 -9 -10 -10 -10 -10 -12 -12 -13 -11 -9 -8 -6 -4 -3 -2 -1 -0 0 -0 -0 -0 0 1 2 3 6 7 7 6 4 3 1 -4 -6 -6
4 5 6 5 6 7 7 7 7 6 6 6 6 6 6 7 6 6 5 5 5 5 4 4 3 2 3 7 8 10 6 2 1 -0 -1 -1 -1 -2 -2 -3 -4 -4 -3 -4 -5 -6 -6 -7 -9 -10 -9 -8 -9 -10 -11 -12 -12 -11 -9 -9 -8 -6 -5 -2 -1 -1 -0 0 -0 -0 -1 -0 -0 0 1 4 6 7 5 4 2 0 -3 -9 -8
3 3 4 5 6 6 7 7 6 6 6 6 7 6 6 6 6 6 5 5 5 4 4 4 2 1 2 5 7 8 6 3 0 -0 -1 -2 -2 -3 -3 -3 -3 -5 -6 -7 -8 -9 -8 -9 -10 -10 -11 -10 -10 -12 -12 -13 -13 -11 -9 -8 -6 -4 -4 -3 -2 -1 1 1 -0 -1 -1 -1 -1 -1 1 3 5 5 5 4 2 -1 -3 -7 -8
1 3 3 4 4 5 5 6 6 6 6 5 5 5 5 5 5 5 5 4 4 4 3 3 2 1 1 3 5 6 7 4 1 -1 -2 -2 -3 -2 -2 -4 -5 -6 -7 -7 -7 -9 -9 -8 -8 -10 -10 -11 -12 -12 -12 -13 -14 -13 -12 -8 -6 -5 -5 -3 -1 1 2 1 -0 -1 -1 -1 -2 -2 -0 2 4 4 4 3 1 1 -3 -5 -6
1 2 3 4 4 5 5 5 5 5 5 5 5 4 4 4 4 4 4 4 4 3 3 3 2 1 1 2 4 4 5 4 3 0 -1 -2 -3 -2 -3 -4 -6 -7 -6 -7 -8 -9 -9 -9 -9 -9 -9 -11 -13 -14 -14 -15 -14 -14 -14 -10 -6 -5 -3 -2 0 2 3 2 0 -0 -1 -1 -2 -1 0 1 3 4 3 3 2 1 -1 -2 -1
-1 0 2 3 4 4 4 5 4 4 4 4 4 4 4 4 4 4 4 4 4 3 3 2 2 1 1 1 2 3 3 3 2 -0 -1 -2 -3 -3 -4 -5 -7 -8 -9 -9 -10 -10 -11 -10 -9 -10 -10 -11 -13 -14 -15 -15 -16 -15 -14 -13 -11 -7 -5 -2 0 3 3 3 1 -1 -2 -2 -3 -3 -2 -0 2 3 3 2 1 -0 -2 -2 -2
-2 -0 1 2 2 3 3 3 4 4 4 4 4 4 4 3 3 3 3 3 3 3 3 2 2 1 1 1 1 2 2 1 0 -1 -2 -3 -3 -3 -4 -6 -8 -8 -8 -9 -10 -10 -11 -11 -11 -11 -11 -11 -12 -13 -14 -15 -16 -16 -17 -17 -14 -12 -7 -4 -3 -1 1 1 -1 -2 -3 -4 -5 -4 -3 -2 -1 1 1 1 -1 -3 -3 -2 -1
-3 -1 -1 0 1 2 2 3 3 3 3 3 3 3 3 3 2 2 2 2 2 2 2 2 1 1 1 0 0 -0 -0 -1 -1 -2 -3 -3 -3 -4 -6 -7 -8 -8 -9 -10 -10 -11 -11 -12 -12 -12 -12 -13 -14 -15 -15 -15 -14 -16 -17 -18 -14 -8 -6 -5 -3 -1 0 2 -1 -7 -9 -10 -9 -8 -6 -4 -3 -1 0 -1 -2 -2 -2 -1 -1
-3 -2 -1 -1 0 1 1 2 2 2 2 2 2 2 2 2 2 2 2 2 2 1 2 2 1 0 0 -1 -1 -2 -2 -2 -3 -3 -3 -4 -4 -5 -7 -8 -8 -9 -9 -9 -9 -10 -11 -12 -13 -13 -14 -15 -16 -16 -16 -15 -16 -15 -18 -17 -8 -7 -6 -5 -3 -1 0 1 -3 -9 -11 -12 -14 -13 -11 -10 -8 -5 -4 -2 -3 -2 -2 -3 -2
-3 -3 -2 -2 -1 -1 -1 -0 1 1 1 2 2 2 2 2 2 2 2 1 1 1 1 1 1 0 -0 -1 -2 -2 -3 -3 -3 -4 -4 -5 -5 -6 -8 -8 -9 -10 -10 -10 -10 -11 -12 -13 -14 -14 -15 -14 -15 -15 -17 -16 -17 -17 -12 -9 -8 -6 -4 -3 -2 -1 1 2 -2 -8 -9 -11 -13 -13 -11 -11 -11 -10 -5 -3 -4 -5 -5 -4 -3